Weather History for Vlieland, Netherlands

Change the Weather History Date:

Tuesday, November 13, 2012

  Actual Average Record
Temperature  
Mean Temperature 50 °F -  
Max Temperature 53 °F 48 °F 57 °F (2006)
Min Temperature 46 °F 43 °F 30 °F (1999)
Degree Days  
Heating Degree Days 16    
Moisture  
Dew Point 50 °F    
Average Humidity 96    
Maximum Humidity 100    
Minimum Humidity 87    
Precipitation  
Precipitation 0.00 in - - ()
Sea Level Pressure  
Sea Level Pressure 30.30 in    
Wind  
Wind Speed 19 mph ()    
Max Wind Speed 25 mph    
Max Gust Speed -    
Visibility 2.8 miles    
Events Fog , Rain    
Averages and records for this station are not official NWS values.
T = Trace of Precipitation, MM = Missing Value Source: Averaged Metar Reports

Daily Weather History Graph

Daily Weather History Graph

Search for Another Location

Airport:

Trip Planner

Search our weather history database for the weather conditions in past years. The results will help you decide how hot, cold, wet, or windy it might be!

Date:

Astronomy

Nov. 13, 2012 Rise Set
Actual Time 8:01 AM CET 4:46 PM CET
Civil Twilight 7:23 AM CET 5:25 PM CET
Nautical Twilight 6:40 AM CET 6:07 PM CET
Astronomical Twilight 6:00 AM CET 6:48 PM CET
Moon 7:20 AM CET (11/13) 4:24 PM CET (11/13)
Length of Visible Light 10h 02m
Length of Day
8h 44m
Waning Crescent, 0% of the Moon is Illuminated
Nov 13
Waning Crescent
Nov 13
New
Nov 20
First Quarter
Nov 28
Full
Dec 6
Last Quarter

Hourly Weather History & Observations

Time (CET) Temp. Windchill Dew Point Humidity Pressure Visibility Wind Dir Wind Speed Gust Speed Precip Events Conditions
12:25 AM 46.4 °F 38.7 °F 42.8 °F 87% 30.21 in 5.0 mi South 20.7 mph - N/A   Overcast
12:32 AM 46.4 °F 39.0 °F 42.8 °F 87% 30.21 in 5.0 mi South 19.6 mph - N/A   Overcast
12:33 AM 46.4 °F 39.0 °F 42.8 °F 87% 30.21 in 4.3 mi South 19.6 mph - N/A   Overcast
12:55 AM 46.4 °F 38.7 °F 42.8 °F 87% 30.21 in - South 20.7 mph - N/A   Overcast
1:25 AM 46.4 °F 39.2 °F 44.6 °F 93% 30.21 in 1.9 mi South 18.4 mph - N/A   Light Drizzle
1:41 AM 46.4 °F 39.2 °F 44.6 °F 93% 30.21 in - South 18.4 mph - N/A   Overcast
1:55 AM 46.4 °F 39.2 °F 44.6 °F 93% 30.21 in - South 18.4 mph - N/A   Overcast
2:06 AM 46.4 °F 39.2 °F 44.6 °F 93% 30.21 in 2.2 mi South 18.4 mph - N/A   Overcast
2:25 AM 46.4 °F 39.0 °F 44.6 °F 93% 30.21 in 1.6 mi South 19.6 mph - N/A   Overcast
2:55 AM 48.2 °F - 46.4 °F 93% 30.21 in - SSW 23.0 mph - N/A   Overcast
3:25 AM 48.2 °F - 46.4 °F 93% 30.21 in 1.7 mi SSW 24.2 mph - N/A   Overcast
3:55 AM 48.2 °F - 46.4 °F 93% 30.21 in - SSW 24.2 mph - N/A   Overcast
4:25 AM 48.2 °F - 46.4 °F 93% 30.21 in - SSW 23.0 mph - N/A   Overcast
4:55 AM 48.2 °F - 48.2 °F 100% 30.21 in - SSW 24.2 mph - N/A   Overcast
5:25 AM 48.2 °F - 48.2 °F 100% 30.24 in - SSW 21.9 mph - N/A   Overcast
5:30 AM 48.2 °F - 48.2 °F 100% 30.24 in - SSW 23.0 mph - N/A   Overcast
5:33 AM 48.2 °F - 48.2 °F 100% 30.24 in 1.7 mi SSW 24.2 mph - N/A   Overcast
5:55 AM 48.2 °F - 48.2 °F 100% 30.24 in 1.5 mi SSW 20.7 mph - N/A Rain Light Rain
6:21 AM 48.2 °F - 48.2 °F 100% 30.24 in 1.8 mi SSW 18.4 mph - N/A   Overcast
6:25 AM 48.2 °F - 48.2 °F 100% 30.24 in 1.8 mi SSW 18.4 mph - N/A   Overcast
6:55 AM 50.0 °F - 48.2 °F 94% 30.24 in 2.2 mi SSW 17.3 mph - N/A   Overcast
7:25 AM 50.0 °F - 48.2 °F 94% 30.24 in 2.2 mi SSW 18.4 mph - N/A   Overcast
7:55 AM 50.0 °F - 50.0 °F 100% 30.27 in 1.6 mi SSW 17.3 mph - N/A   Overcast
8:04 AM 50.0 °F - 50.0 °F 100% 30.27 in 1.5 mi SSW 16.1 mph - N/A   Overcast
8:10 AM 50.0 °F - 50.0 °F 100% 30.27 in 1.4 mi SSW 17.3 mph - N/A   Overcast
8:25 AM 50.0 °F - 50.0 °F 100% 30.27 in 0.9 mi SSW 18.4 mph - N/A   Overcast
8:33 AM 50.0 °F - 48.2 °F 94% 30.27 in 0.7 mi SSW 17.3 mph - N/A   Mist
8:55 AM 50.0 °F - 50.0 °F 100% 30.27 in 0.5 mi South 18.4 mph - N/A Fog Fog
8:56 AM 50.0 °F - 50.0 °F 100% 30.27 in - South 18.4 mph - N/A Fog Fog
9:25 AM 50.0 °F - 50.0 °F 100% 30.30 in - South 17.3 mph - N/A Fog Fog
9:55 AM 50.0 °F - 50.0 °F 100% 30.30 in 0.4 mi South 18.4 mph - N/A Fog Fog
10:02 AM 50.0 °F - 50.0 °F 100% 30.30 in 0.5 mi South 17.3 mph - N/A Fog Fog
10:15 AM 50.0 °F - 50.0 °F 100% 30.30 in 0.6 mi South 18.4 mph - N/A Fog Fog
10:21 AM 50.0 °F - 50.0 °F 100% 30.30 in 0.6 mi SSW 18.4 mph - N/A Fog Fog
10:25 AM 50.0 °F - 50.0 °F 100% 30.30 in 0.6 mi SSW 19.6 mph - N/A   Overcast
10:37 AM 51.8 °F - 50.0 °F 94% 30.30 in 1.2 mi SSW 19.6 mph - N/A   Overcast
10:44 AM 51.8 °F - 50.0 °F 94% 30.30 in 1.4 mi SSW 19.6 mph - N/A   Overcast
10:55 AM 51.8 °F - 50.0 °F 94% 30.30 in 1.5 mi SSW 18.4 mph - N/A   Overcast
11:13 AM 51.8 °F - 51.8 °F 100% 30.30 in - SSW 19.6 mph - N/A   Overcast
11:25 AM 51.8 °F - 51.8 °F 100% 30.30 in 3.1 mi SSW 19.6 mph - N/A   Overcast
11:47 AM 51.8 °F - 51.8 °F 100% 30.30 in 3.1 mi SSW 18.4 mph - N/A   Overcast
11:55 AM 51.8 °F - 51.8 °F 100% 30.30 in 3.1 mi SSW 19.6 mph - N/A   Overcast
12:06 PM 51.8 °F - 51.8 °F 100% 30.30 in 3.7 mi SSW 18.4 mph - N/A   Overcast
12:11 PM 51.8 °F - 51.8 °F 100% 30.30 in 3.7 mi SSW 18.4 mph - N/A   Overcast
12:15 PM 51.8 °F - 51.8 °F 100% 30.30 in 3.7 mi SSW 18.4 mph - N/A   Overcast
12:25 PM 51.8 °F - 51.8 °F 100% 30.30 in 3.1 mi SSW 18.4 mph - N/A   Overcast
12:26 PM 51.8 °F - 51.8 °F 100% 30.30 in 3.1 mi SSW 19.6 mph - N/A   Overcast
12:33 PM 51.8 °F - 51.8 °F 100% 30.30 in 3.7 mi SSW 19.6 mph - N/A   Overcast
12:34 PM 53.6 °F - 51.8 °F 94% 30.30 in 3.7 mi SSW 20.7 mph - N/A   Overcast
12:55 PM 53.6 °F - 51.8 °F 94% 30.30 in 4.3 mi SSW 20.7 mph - N/A   Mostly Cloudy
1:10 PM 53.6 °F - 51.8 °F 94% 30.30 in 5.6 mi SSW 24.2 mph - N/A   Overcast
1:25 PM 53.6 °F - 51.8 °F 94% 30.30 in 5.6 mi SSW 24.2 mph - N/A   Overcast
1:40 PM 53.6 °F - 51.8 °F 94% 30.30 in 4.3 mi SSW 25.3 mph - N/A   Overcast
1:55 PM 53.6 °F - 51.8 °F 94% 30.33 in 4.3 mi SSW 24.2 mph - N/A   Overcast
2:25 PM 53.6 °F - 51.8 °F 94% 30.33 in 5.0 mi SSW 25.3 mph - N/A   Overcast
2:47 PM 53.6 °F - 51.8 °F 94% 30.30 in 5.0 mi SW 25.3 mph - N/A   Overcast
2:51 PM 53.6 °F - 51.8 °F 94% 30.30 in 4.3 mi SW 25.3 mph - N/A   Overcast
2:55 PM 53.6 °F - 51.8 °F 94% 30.30 in 5.0 mi SW 24.2 mph - N/A   Overcast
3:25 PM 53.6 °F - 51.8 °F 94% 30.33 in 3.7 mi SW 24.2 mph - N/A   Overcast
3:29 PM 53.6 °F - 51.8 °F 94% 30.33 in 3.7 mi SW 24.2 mph - N/A   Overcast
3:30 PM 53.6 °F - 51.8 °F 94% 30.33 in 3.7 mi SW 24.2 mph - N/A   Mostly Cloudy
3:37 PM 53.6 °F - 51.8 °F 94% 30.33 in 3.7 mi SW 23.0 mph - N/A   Overcast
3:55 PM 53.6 °F - 51.8 °F 94% 30.33 in 3.1 mi SW 23.0 mph - N/A   Mostly Cloudy
4:04 PM 53.6 °F - 51.8 °F 94% 30.33 in - SW 21.9 mph - N/A   Mostly Cloudy
4:09 PM 53.6 °F - 51.8 °F 94% 30.33 in 3.1 mi SW 21.9 mph - N/A   Overcast
4:25 PM 51.8 °F - 51.8 °F 100% 30.33 in - SW 20.7 mph - N/A   Mostly Cloudy
4:29 PM 51.8 °F - 50.0 °F 94% 30.33 in - SW 19.6 mph - N/A   Overcast
4:42 PM 51.8 °F - 50.0 °F 94% 30.33 in - SW 19.6 mph - N/A   Overcast
4:55 PM 51.8 °F - 51.8 °F 100% 30.33 in - SW 20.7 mph - N/A   Overcast
5:02 PM 51.8 °F - 51.8 °F 100% 30.33 in - SW 20.7 mph - N/A   Overcast
5:08 PM 51.8 °F - 50.0 °F 94% 30.33 in - SW 20.7 mph - N/A   Overcast
5:12 PM 51.8 °F - 50.0 °F 94% 30.33 in 1.9 mi SW 20.7 mph - N/A   Overcast
5:25 PM 51.8 °F - 50.0 °F 94% 30.33 in 1.7 mi SW 19.6 mph - N/A   Overcast
5:39 PM 51.8 °F - 50.0 °F 94% 30.33 in 1.9 mi SW 18.4 mph - N/A   Mostly Cloudy
5:55 PM 51.8 °F - 50.0 °F 94% 30.33 in 1.8 mi SW 20.7 mph - N/A   Overcast
6:25 PM 51.8 °F - 50.0 °F 94% 30.36 in - SW 21.9 mph - N/A   Overcast
6:29 PM 51.8 °F - 50.0 °F 94% 30.36 in 2.8 mi SW 20.7 mph - N/A   Overcast
6:42 PM 51.8 °F - 50.0 °F 94% 30.36 in 3.7 mi SW 19.6 mph - N/A   Overcast
6:55 PM 51.8 °F - 50.0 °F 94% 30.36 in 3.7 mi SW 19.6 mph - N/A   Mostly Cloudy
7:25 PM 51.8 °F - 50.0 °F 94% 30.36 in 4.3 mi SSW 19.6 mph - N/A   Mostly Cloudy
7:55 PM 51.8 °F - 50.0 °F 94% 30.36 in 3.1 mi SSW 19.6 mph - N/A   Overcast
8:03 PM 51.8 °F - 50.0 °F 94% 30.36 in - SSW 19.6 mph - N/A   Overcast
8:25 PM 51.8 °F - 50.0 °F 94% 30.36 in 3.1 mi SSW 18.4 mph - N/A   Overcast
8:36 PM 51.8 °F - 50.0 °F 94% 30.36 in - SSW 18.4 mph - N/A   Overcast
8:55 PM 51.8 °F - 50.0 °F 94% 30.36 in - SSW 17.3 mph - N/A   Overcast
9:25 PM 51.8 °F - 50.0 °F 94% 30.39 in - SSW 16.1 mph - N/A   Overcast
9:50 PM 50.0 °F - 50.0 °F 100% 30.39 in - SSW 17.3 mph - N/A   Overcast
9:55 PM 50.0 °F - 50.0 °F 100% 30.39 in - SSW 17.3 mph - N/A   Overcast
10:25 PM 50.0 °F - 50.0 °F 100% 30.39 in - SSW 16.1 mph - N/A   Overcast
10:55 PM 50.0 °F - 48.2 °F 94% 30.39 in - SSW 15.0 mph - N/A   Overcast
11:25 PM 50.0 °F - 48.2 °F 94% 30.39 in - SSW 15.0 mph - N/A   Overcast
11:38 PM 50.0 °F - 48.2 °F 94% 30.39 in - SSW 15.0 mph - N/A   Overcast
11:55 PM 50.0 °F - 48.2 °F 94% 30.39 in - SSW 15.0 mph - N/A   Overcast